Date String (YYYY-MM-DD hh:mm:ss) UTC,Instrument flags,absolute air pressure of the measurement (hPa),sample flow rate (lpm),inlet stack bypass flow (lpm),air temperature of the measurement (°C),ambient temperature measured by the external sensor (°C),aerosol sample conditioner tube jacket temperature (°C),OPC LED temperature (°C),internal box temperature (°C),relative humidity of the measurement (%),span deviation,mass concentration of particles derived from Lorenz-Mie calculation of OPC scattering (μg/m³),mass concentration of particles derived from Lorenz-Mie calculation of OPC scattering (μg/m³),mass concentration of particles derived from Lorenz-Mie calculation of OPC scattering (μg/m³)
DateTimeUTC,F1_M11,P_M11,Q1_M11,Q2_M11,T1_M11,T2_M11,T3_M11,T4_M11,T5_M11,U1_M11,ZSPAN_M11,X2_M11,X0_M11,X1_M11
2024-04-17 14:00:00,SystemResetWarning,0826.2,5.00,000.00,026.0,025.3,000.0,034.5,027.8,015.3,0000.0,0003.25,0007.91,0002.03
2024-04-17 14:01:00,SystemResetWarning,0826.2,4.99,000.00,026.0,025.3,000.0,034.5,027.8,015.4,0000.0,0003.30,0008.26,0002.07
2024-04-17 14:02:00,SystemResetWarning,0826.2,4.99,000.00,026.0,025.3,000.0,034.5,027.8,015.5,0000.0,0003.35,0008.59,0002.09
2024-04-17 14:03:00,SystemResetWarning,0826.2,5.01,000.00,026.0,025.3,000.0,034.5,027.8,014.9,0000.0,0003.39,0008.93,0002.11
2024-04-17 14:04:00,SystemResetWarning,0826.2,5.01,000.00,026.0,025.3,000.0,034.4,027.8,014.5,0000.0,0003.40,0008.90,0002.10
2024-04-17 14:05:00,SystemResetWarning,0826.2,5.00,000.00,026.0,025.3,000.0,034.4,027.9,014.3,0000.0,0003.38,0008.58,0002.08
2024-04-17 14:06:00,SystemResetWarning,0826.2,5.00,000.00,026.0,025.3,000.0,034.5,027.9,014.9,0000.0,0003.35,0008.57,0002.07
2024-04-17 14:07:00,SystemResetWarning,0826.2,5.00,000.00,026.0,025.3,000.0,034.5,027.9,014.5,0000.0,0003.32,0008.50,0002.05
2024-04-17 14:08:00,SystemResetWarning,0826.2,5.00,000.00,026.0,025.3,000.0,034.5,027.8,014.4,0000.0,0003.30,0008.44,0002.03
2024-04-17 14:09:00,SystemResetWarning,0826.2,4.99,000.00,026.0,025.3,000.0,034.5,027.8,014.4,0000.0,0003.28,0008.44,0001.98
2024-04-17 14:10:00,SystemResetWarning,0826.2,5.01,000.00,026.0,025.3,000.0,034.5,027.8,014.2,0000.0,0003.22,0008.41,0001.91
2024-04-17 14:11:00,SystemResetWarning,0826.1,5.01,000.00,026.0,025.3,000.0,034.5,027.9,014.3,0000.0,0003.18,0007.88,0001.86
2024-04-17 14:12:00,SystemResetWarning,0826.1,5.00,000.00,026.0,025.2,000.0,034.5,027.9,014.4,0000.0,0003.12,0007.40,0001.80
2024-04-17 14:13:00,SystemResetWarning,0826.1,4.98,000.00,026.0,025.2,000.0,034.5,027.9,014.6,0000.0,0003.07,0007.29,0001.76
2024-04-17 14:14:00,SystemResetWarning,0826.1,5.00,000.00,026.0,025.2,000.0,034.5,027.9,014.3,0000.0,0002.92,0005.81,0001.72
2024-04-17 14:15:00,SystemResetWarning,0826.1,5.01,000.00,026.0,025.2,000.0,034.5,027.9,014.6,0000.0,0002.86,0005.38,0001.71
2024-04-17 14:16:00,SystemResetWarning,0826.0,5.01,000.00,026.0,025.2,000.0,034.5,027.8,014.4,0000.0,0002.82,0005.28,0001.70
2024-04-17 14:17:00,SystemResetWarning,0826.1,5.00,000.00,026.0,025.2,000.0,034.5,027.8,014.4,0000.0,0002.81,0005.16,0001.71
2024-04-17 14:18:00,SystemResetWarning,0826.0,4.99,000.00,026.0,025.2,000.0,034.5,027.8,014.6,0000.0,0002.80,0005.08,0001.71
2024-04-17 14:19:00,SystemResetWarning,0826.0,5.00,000.00,026.0,025.2,000.0,034.5,027.8,014.7,0000.0,0002.87,0005.29,0001.72
2024-04-17 14:20:00,SystemResetWarning,0826.0,4.99,000.00,026.0,025.2,000.0,034.5,027.9,014.7,0000.0,0002.83,0005.20,0001.73
2024-04-17 14:21:00,SystemResetWarning,0826.0,4.99,000.00,026.0,025.2,000.0,034.5,027.9,014.6,0000.0,0002.80,0005.13,0001.74
2024-04-17 14:22:00,SystemResetWarning,0826.0,5.01,000.00,026.0,025.2,000.0,034.5,027.9,014.6,0000.0,0002.78,0005.07,0001.73
2024-04-17 14:23:00,SystemResetWarning,0826.0,5.00,000.00,026.0,025.2,000.0,034.5,027.9,014.4,0000.0,0002.78,0005.48,0001.74
2024-04-17 14:24:00,SystemResetWarning,0826.0,5.00,000.00,026.0,025.2,000.0,034.5,027.9,014.6,0000.0,0002.86,0005.88,0001.75
2024-04-17 14:25:00,SystemResetWarning,0825.9,5.00,000.00,026.0,025.2,000.0,034.5,027.9,014.9,0000.0,0002.92,0006.21,0001.75
2024-04-17 14:26:00,SystemResetWarning,0825.9,4.99,000.00,026.0,025.2,000.0,034.5,027.9,014.9,0000.0,0002.90,0006.30,0001.75
2024-04-17 14:27:00,SystemResetWarning,0825.9,5.00,000.00,026.0,025.2,000.0,034.5,027.9,014.4,0000.0,0002.89,0006.26,0001.75
2024-04-17 14:28:00,SystemResetWarning,0825.9,4.99,000.00,026.1,025.2,000.0,034.5,027.9,014.6,0000.0,0002.90,0006.44,0001.74
2024-04-17 14:29:00,SystemResetWarning,0826.0,5.00,000.00,026.1,025.3,000.0,034.5,027.9,015.1,0000.0,0002.92,0006.67,0001.74
2024-04-17 14:30:00,SystemResetWarning,0826.0,5.00,000.00,026.1,025.3,000.0,034.5,027.9,015.5,0000.0,0002.88,0007.05,0001.72
2024-04-17 14:31:00,SystemResetWarning,0826.0,5.00,000.00,026.1,025.3,000.0,034.5,027.9,015.6,0000.0,0002.87,0007.95,0001.71
2024-04-17 14:32:00,SystemResetWarning,0826.0,5.00,000.00,026.1,025.3,000.0,034.5,027.9,015.4,0000.0,0002.94,0008.32,0001.71
2024-04-17 14:33:00,SystemResetWarning,0825.9,5.00,000.00,026.1,025.3,000.0,034.6,027.9,015.5,0000.0,0002.99,0008.35,0001.71
2024-04-17 14:34:00,SystemResetWarning,0825.9,5.01,000.00,026.1,025.3,000.0,034.6,027.9,015.8,0000.0,0003.01,0008.79,0001.72
2024-04-17 14:35:00,SystemResetWarning,0825.9,5.00,000.00,026.1,025.3,000.0,034.6,028.0,015.7,0000.0,0003.10,0009.17,0001.72
2024-04-17 14:36:00,SystemResetWarning,0825.9,5.00,000.00,026.1,025.3,000.0,034.6,028.0,015.6,0000.0,0003.13,0009.19,0001.73
2024-04-17 14:37:00,SystemResetWarning,0825.9,5.00,000.00,026.1,025.3,000.0,034.6,028.0,015.9,0000.0,0003.14,0009.12,0001.73
2024-04-17 14:38:00,SystemResetWarning,0825.9,5.00,000.00,026.1,025.3,000.0,034.6,028.0,015.5,0000.0,0003.16,0009.22,0001.73
2024-04-17 14:39:00,SystemResetWarning,0825.9,5.00,000.00,026.1,025.4,000.0,034.6,028.0,015.6,0000.0,0003.16,0009.19,0001.73
2024-04-17 14:40:00,SystemResetWarning,0825.9,5.00,000.00,026.1,025.4,000.0,034.6,028.0,015.8,0000.0,0003.14,0009.06,0001.72
2024-04-17 14:41:00,SystemResetWarning,0825.9,5.00,000.00,026.2,025.4,000.0,034.6,028.0,017.4,0000.0,0003.13,0008.80,0001.73
2024-04-17 14:42:00,SystemResetWarning,0825.9,4.99,000.00,026.2,025.4,000.0,034.6,028.0,016.4,0000.0,0003.14,0008.14,0001.77
2024-04-17 14:43:00,SystemResetWarning,0825.9,5.00,000.00,026.2,025.4,000.0,034.6,028.0,016.0,0000.0,0003.12,0008.41,0001.77
2024-04-17 14:44:00,SystemResetWarning,0825.9,5.00,000.00,026.2,025.4,000.0,034.6,028.1,017.2,0000.0,0003.18,0008.70,0001.80
2024-04-17 14:45:00,SystemResetWarning,0825.9,5.00,000.00,026.2,025.4,000.0,034.6,028.1,016.4,0000.0,0003.19,0008.19,0001.83
2024-04-17 14:46:00,SystemResetWarning,0825.9,5.00,000.00,026.2,025.4,000.0,034.6,028.1,017.2,0000.0,0003.14,0008.05,0001.83
2024-04-17 14:47:00,SystemResetWarning,0825.9,5.00,000.00,026.2,025.5,000.0,034.6,028.1,017.3,0000.0,0003.18,0008.65,0001.86
2024-04-17 14:48:00,SystemResetWarning,0825.9,5.00,000.00,026.2,025.5,000.0,034.7,028.1,017.3,0000.0,0003.20,0009.32,0001.89
2024-04-17 14:49:00,SystemResetWarning,0825.9,5.00,000.00,026.2,025.5,000.0,034.7,028.1,016.5,0000.0,0003.24,0010.67,0001.91
2024-04-17 14:50:00,SystemResetWarning,0825.9,5.00,000.00,026.3,025.5,000.0,034.7,028.1,016.2,0000.0,0003.28,0011.73,0001.94
2024-04-17 14:51:00,SystemResetWarning,0825.9,5.02,000.00,026.3,025.5,000.0,034.7,028.1,016.3,0000.0,0003.30,0012.05,0001.97
2024-04-17 14:52:00,SystemResetWarning,0825.9,5.01,000.00,026.3,025.5,000.0,034.7,028.1,016.3,0000.0,0003.36,0013.34,0002.00
2024-04-17 14:53:00,SystemResetWarning,0825.9,5.00,000.00,026.3,025.5,000.0,034.7,028.2,017.1,0000.0,0003.35,0013.34,0001.99
2024-04-17 14:54:00,SystemResetWarning,0825.9,4.99,000.00,026.3,025.6,000.0,034.7,028.2,017.3,0000.0,0003.36,0013.70,0002.01
2024-04-17 14:55:00,SystemResetWarning,0825.9,4.99,000.00,026.3,025.6,000.0,034.7,028.2,016.9,0000.0,0003.31,0014.03,0002.00
2024-04-17 14:56:00,SystemResetWarning,0825.9,4.99,000.00,026.3,025.6,000.0,034.7,028.2,016.8,0000.0,0003.29,0014.35,0002.00
2024-04-17 14:57:00,SystemResetWarning,0825.9,5.01,000.00,026.3,025.6,000.0,034.7,028.2,016.8,0000.0,0003.30,0014.51,0002.02
2024-04-17 14:58:00,SystemResetWarning,0825.9,5.01,000.00,026.4,025.6,000.0,034.8,028.2,016.2,0000.0,0003.28,0014.43,0002.01
2024-04-17 14:59:00,SystemResetWarning,0825.9,5.00,000.00,026.4,025.6,000.0,034.8,028.2,016.2,0000.0,0003.32,0014.54,0002.01
